#timestamp,LO_Frequency,Hit,StdDev 
1506808815.0,286047002.1,N
1506808815.9,286047002.1,N
1506808835.8,286047003.6,N
1506808855.6,286047002.2,N
1506808875.4,286047005.4,N
1506808895.3,286046999.7,N
1506808915.1,286047004.0,N
1506808916.0,286047004.0,N
1506808935.8,286046998.9,N
1506808955.6,286046999.8,N
1506808975.5,286047002.6,N
1506808995.3,286047003.7,N
1506809015.1,286047003.8,N
1506809035.9,286047005.4,N
1506809055.7,286047003.8,N
1506809075.5,286047005.8,N
1506809095.4,286047004.7,N
1506809115.2,286047004.7,N
1506809135.0,286047002.6,N
1506809135.9,286047002.6,N
1506809155.8,286047003.3,N
1506809175.6,286047006.0,N
1506809195.4,286047002.3,N
1506809215.3,286047001.5,N
1506809235.1,286047001.7,N
1506809236.0,286047001.7,N
1506809255.8,286047000.0,N
1506809275.7,286046999.4,N
1506809295.5,286046997.9,N
1506809315.3,286046995.5,N
1506809335.1,286046995.5,N
1506809355.9,286046994.6,N
1506809375.7,286046990.1,Y
1506809395.5,286046988.7,P
1506809415.4,286046986.1,N
1506809435.2,286046984.8,N
1506809455.0,286046982.2,N
1506809455.9,286046982.2,N
1506809475.8,286046983.5,N
1506809495.6,286046983.3,N
1506809515.4,286046981.0,Y
1506809535.3,286046994.8,P
1506809555.1,286046991.9,N
1506809575.8,286046992.6,N
1506809595.7,286046989.2,Y
1506809615.5,286046994.2,P
1506809635.3,286046994.4,P
1506809655.2,286046994.3,P
1506809675.9,286046993.7,Y
1506809695.7,286047003.9,P
1506809715.6,286047001.4,N
1506809735.4,286047003.9,N
1506809755.2,286047002.0,N
1506809775.1,286047001.7,N
1506809776.0,286047001.7,N
1506809795.8,286047004.4,N
1506809815.6,286047001.7,N
1506809835.5,286047001.8,N
1506809855.3,286047002.6,N
1506809875.1,286046998.1,N
1506809895.9,286047000.4,N
1506809915.7,286047000.1,N
1506809935.5,286047002.3,N
1506809955.3,286047002.7,N
1506809975.2,286047002.1,N
1506809995.0,286047000.1,N
1506809995.9,286047000.1,N
1506810015.7,286047000.3,N
1506810035.6,286047000.0,N
1506810055.4,286046999.1,N
1506810075.2,286046993.9,N
1506810095.1,286046995.2,N
1506810096.0,286046995.2,N
1506810115.8,286046996.5,N
1506810135.6,286046994.9,N
1506810155.5,286046995.2,N
1506810175.3,286046994.9,N
1506810195.1,286046994.5,N
1506810215.9,286046993.6,N
1506810235.7,286046993.6,N
1506810255.5,286046990.1,N
1506810275.3,286046993.0,N
1506810295.2,286046991.9,N
1506810315.0,286046991.9,N
1506810315.9,286046991.9,N
1506810335.7,286046994.4,N
1506810355.6,286046996.0,N
1506810375.4,286046995.6,N
1506810395.2,286046993.8,N
1506810415.1,286046997.3,N
1506810416.0,286046997.3,N
1506810435.8,286047003.9,N
1506810455.6,286047005.2,N
1506810475.5,286047008.5,N
1506810495.3,286047011.3,N
1506810515.1,286047015.1,Y
1506810535.9,286047018.7,P
1506810555.7,286047021.6,N
1506810575.5,286047021.2,N
1506810595.4,286047025.0,N
1506810615.2,286047024.5,N
1506810635.0,286047030.6,Y
1506810635.9,286047030.6,P
1506810655.8,286047014.2,N
1506810675.6,286047017.0,N
1506810695.4,286047017.5,N
1506810715.3,286047021.6,Y
1506810735.1,286047001.4,P
1506810736.0,286047001.4,N
1506810755.8,286047006.0,N
1506810775.7,286047003.7,N
1506810795.5,286047006.0,N
1506810815.3,286047001.8,N
1506810835.2,286046998.2,N
1506810855.9,286046996.5,N
1506810875.7,286046996.5,N
1506810895.6,286046999.2,N
1506810915.4,286046998.2,N
1506810935.2,286046994.9,N
1506810955.0,286046996.9,N
1506810955.9,286046996.9,N
1506810975.8,286046999.2,N
1506810995.6,286047002.2,N
1506811015.4,286047004.3,N
1506811035.3,286047007.2,N
1506811055.1,286047010.8,N
1506811056.0,286047010.8,N
1506811075.8,286047007.9,N
1506811095.7,286047005.6,N
1506811115.5,286047006.6,N
1506811135.3,286047009.9,N
1506811155.2,286047011.7,N
1506811175.9,286047013.4,N
1506811195.7,286047010.2,N
1506811215.6,286047004.8,N
1506811235.4,286046998.8,N
1506811255.2,286046997.8,N
1506811275.0,286046996.0,N
1506811275.9,286046996.0,N
1506811295.8,286046992.5,N
1506811315.6,286046987.2,N
1506811335.4,286046986.1,N
1506811355.3,286046984.4,N
1506811375.1,286046983.0,N
1506811395.8,286046982.0,N
1506811415.7,286046982.9,N
1506811435.5,286046982.7,N
1506811455.3,286046985.1,N
1506811475.2,286046982.9,N
1506811495.9,286046983.6,N
1506811515.7,286046982.1,N
1506811535.6,286046980.5,N
1506811555.4,286046979.0,N
1506811575.2,286046977.9,N
1506811595.0,286046979.5,N
1506811596.0,286046979.5,N
1506811615.8,286046976.1,N
1506811635.6,286046975.0,N
1506811655.4,286046976.7,N
1506811675.3,286046975.9,N
1506811695.1,286046976.8,N
1506811715.8,286046976.7,N
1506811735.7,286046974.3,N
1506811755.5,286046971.8,Y
1506811775.3,286046984.6,P
1506811795.2,286046986.8,P
1506811815.9,286046982.5,P
1506811835.7,286046982.7,Y
1506811855.6,286046997.3,P
1506811875.4,286046995.6,N
1506811895.2,286046994.9,N
1506811915.1,286046996.4,N
1506811916.0,286046996.4,N
1506811935.8,286046997.9,N
1506811955.6,286046996.9,N
1506811975.5,286046997.8,N
1506811995.3,286046997.8,N
1506812015.1,286046997.8,N
1506812035.9,286046996.7,N
1506812055.7,286046995.3,N
1506812075.5,286046995.5,N
1506812095.3,286046997.2,N
1506812115.2,286047001.2,N
1506812135.0,286047003.8,N
1506812135.9,286047003.8,N
1506812155.7,286047001.7,N
1506812175.6,286046998.7,N
1506812195.4,286046997.7,N
1506812215.2,286046997.2,N
1506812235.1,286046996.5,N
1506812236.0,286046996.5,N
1506812255.8,286046996.1,N
1506812275.6,286046996.2,N
1506812295.5,286046997.9,N
1506812315.3,286046995.5,N
1506812335.1,286046997.3,N
1506812355.9,286046997.9,N
1506812375.7,286046996.2,N
1506812395.5,286046989.3,Y
